Location: Caltech
(34.1382°N, 118.1253°W)
Time: 23:54:21
(UTC-08:00)

ADEOS II - Visible Passes

Search period start: 24 February 2018 00:00
Search period end: 06 March 2018 00:00
Orbit: 800 x 801 km, 98.4° (Epoch: 24 February)

Date Brightness Start Highest point End Pass type
(mag) Time Alt. Az. Time Alt. Az. Time Alt. Az.
01 Mar 4.6 03:46:19 10° N 03:46:19 10° N 03:46:19 10° N visible
02 Mar 4.8 03:19:38 10° N 03:19:42 10° N 03:19:42 10° N visible
04 Mar 4.4 04:07:10 10° NNW 04:07:24 11° NNW 04:07:24 11° NNW visible
05 Mar 4.4 03:40:11 10° N 03:40:46 13° N 03:40:46 13° N visible
